Theta_e
338 331 330 334 332 328 328 330 339 342 345 346 348 349 350 346 346 351 350 350 350 350
334 333 329 332 334 327 332 329 333 338 341 344 345 347 349 345 345 347 350 350 351 349
331 331 331 332 331 330 331 331 331 334 338 341 342 344 346 345 346 345 345 346 349 347
328 329 331 330 329 328 329 328 327 328 330 333 338 341 344 344 343 341 345 346 345 346
328 328 330 329 328 328 327 326 325 324 325 326 330 337 338 337 341 340 340 342 343 342
327 328 329 329 328 327 326 325 324 323 322 322 325 329 334 336 336 341 340 341 341 342
326 327 327 328 328 328 326 325 325 324 323 322 322 324 328 332 334 336 339 340 342 341
326 326 326 327 326 327 327 325 325 323 323 323 322 321 326 330 332 336 337 341 339 343
323 323 323 324 324 326 325 325 325 323 322 322 321 311 310 321 333 334 337 339 340 342
319 319 320 321 322 323 325 326 324 324 323 322 323 309 308 311 329 333 337 339 339 339
316 317 318 319 322 325 326 325 323 322 323 322 321 308 307 308 329 333 335 338 339 340
315 315 317 318 321 325 323 322 322 321 321 321 321 308 306 311 327 329 333 334 339 339
316 316 316 319 321 322 322 320 319 319 321 316 321 309 304 309 325 330 332 334 335 314
316 318 316 315 317 318 318 318 319 317 321 322 321 321 305 304 323 328 328 326 322 320
Wind_Speed
10 8 6 5 2 4 5 6 7 8 9 10 12 12 12 11 11 12 11 16 14 12
8 7 4 4 4 5 4 6 8 10 11 11 12 12 13 12 13 13 11 14 15 13
9 8 5 5 6 5 5 6 7 10 12 12 13 13 13 13 13 14 11 12 14 14
10 8 7 7 7 6 5 6 8 9 11 12 13 13 13 14 16 16 15 16 15 15
10 9 10 9 9 7 7 7 8 9 11 13 14 14 14 14 16 17 17 17 17 14
10 11 11 10 9 9 9 9 10 9 10 12 15 16 16 16 16 18 18 18 17 17
12 12 11 11 11 11 12 11 11 11 12 13 14 16 18 18 18 18 18 18 18 18
13 13 13 13 13 13 14 13 13 13 13 13 14 12 17 18 19 18 18 18 19 18
14 15 15 15 15 15 16 15 15 15 15 14 12 12 12 15 17 18 18 17 18 17
17 17 17 17 17 17 16 16 17 16 16 16 17 14 15 16 17 18 17 18 16 14
18 19 18 18 17 16 15 16 16 17 17 16 15 13 15 16 18 18 20 18 18 16
20 20 19 19 18 15 15 16 16 16 17 17 17 13 14 13 18 18 20 17 19 17
20 20 20 17 16 12 14 16 15 18 18 19 19 15 13 14 15 16 14 12 14 13
20 17 15 14 13 12 15 17 17 19 17 19 18 18 16 19 18 13 12 9 8 8
Wind_Direction
178 199 210 194 277 274 296 292 308 286 275 264 259 253 243 241 241 240 222 228 220 221
194 211 203 184 217 241 270 286 285 290 282 270 264 255 250 244 243 242 233 233 226 226
198 204 204 212 226 251 266 272 282 285 286 279 268 259 250 246 240 246 236 238 232 224
207 205 206 219 230 241 248 263 272 278 282 279 275 267 259 251 249 240 238 242 244 235
209 214 214 225 236 238 246 255 265 275 278 279 275 271 264 254 257 250 243 240 238 230
218 224 229 237 244 249 249 250 261 271 279 280 277 271 266 263 250 250 250 249 246 241
224 233 242 248 251 251 254 254 259 264 274 280 276 271 266 262 261 251 252 244 249 245
240 248 253 257 260 259 258 253 255 261 266 274 275 267 263 261 257 258 250 247 243 247
257 258 260 261 259 256 256 251 249 255 263 269 270 273 267 265 265 268 257 248 246 245
261 260 259 259 257 254 251 252 248 250 257 263 267 257 256 256 263 263 253 247 246 244
263 262 262 260 258 254 251 245 248 253 255 262 264 247 249 249 259 262 256 245 243 230
266 264 261 260 258 253 247 246 249 255 261 263 265 248 242 246 259 257 252 248 240 225
262 259 259 263 259 251 249 251 256 260 260 262 264 254 243 240 256 255 249 237 225 199
269 262 254 252 257 258 257 259 260 264 264 261 257 257 235 229 242 245 245 213 199 192